Weather History for Whiting Fld NAS, FL

Change the Weather History Date:

Friday, July 5, 2013

  Actual Average Record
Temperature  
Mean Temperature 73 °F -  
Max Temperature 77 °F 86 °F 96 °F (1998)
Min Temperature 69 °F 69 °F 69 °F (2013)
Cooling Degree Days 8    
Growing Degree Days 23 (Base 50)    
Moisture  
Dew Point 71 °F    
Average Humidity 92    
Maximum Humidity 100    
Minimum Humidity 87    
Precipitation  
Precipitation 2.11 in - - ()
Sea Level Pressure  
Sea Level Pressure 30.04 in    
Wind  
Wind Speed 5 mph (ESE)    
Max Wind Speed 15 mph    
Max Gust Speed -    
Visibility 7 miles    
Events Rain , Thunderstorm    
Averages and records for this station are not official NWS values.
T = Trace of Precipitation, MM = Missing Value Source: NWS Daily Summary

Daily Weather History Graph

Daily Weather History Graph

Search for Another Location

Airport:

Trip Planner

Search our weather history database for the weather conditions in past years. The results will help you decide how hot, cold, wet, or windy it might be!

Date:

Astronomy

Jul. 05, 2013 Rise Set
Actual Time 5:50 AM CDT 7:54 PM CDT
Civil Twilight 5:23 AM CDT 8:22 PM CDT
Nautical Twilight 4:49 AM CDT 8:55 PM CDT
Astronomical Twilight 4:13 AM CDT 9:31 PM CDT
Moon 3:45 AM CDT (7/5) 5:52 PM CDT (7/5)
Length of Visible Light 14h 59m
Length of Day
14h 04m
Waning Crescent, 6% of the Moon is Illuminated
Jul 5
Waning Crescent
Jul 8
New
Jul 15
First Quarter
Jul 22
Full
Jul 29
Last Quarter

Hourly Weather History & Observations

Time (CDT) Temp. Dew Point Humidity Pressure Visibility Wind Dir Wind Speed Gust Speed Precip Events Conditions
12:56 AM 77.0 °F 73.9 °F 90% 29.98 in 10.0 mi South 3.5 mph - 0.00 in   Mostly Cloudy
1:03 AM 77.0 °F 73.4 °F 89% 30.02 in 10.0 mi South 3.5 mph - N/A   Mostly Cloudy
1:24 AM 75.2 °F 71.6 °F 89% 30.03 in 2.5 mi Calm Calm - 0.03 in Rain Rain
1:39 AM 75.2 °F 71.6 °F 89% 30.03 in 5.0 mi SSW 9.2 mph - 0.04 in Rain Light Rain
1:46 AM 75.2 °F 71.6 °F 89% 30.03 in 10.0 mi SSW 6.9 mph - 0.04 in Rain Light Rain
1:56 AM 75.9 °F 73.0 °F 91% 29.99 in 10.0 mi SSW 4.6 mph - 0.04 in   Mostly Cloudy
2:49 AM 73.4 °F 73.4 °F 100% 30.03 in 2.5 mi South 3.5 mph - 0.05 in Rain Rain
2:56 AM 75.0 °F 72.0 °F 90% 29.98 in 1.5 mi Variable 5.8 mph - 0.11 in Rain Heavy Rain
3:01 AM 75.2 °F 71.6 °F 89% 30.02 in 3.0 mi Variable 4.6 mph - 0.01 in Rain Heavy Rain
3:15 AM 73.4 °F 71.6 °F 94% 30.02 in 10.0 mi ESE 3.5 mph - 0.01 in   Mostly Cloudy
3:44 AM 73.4 °F 71.6 °F 94% 30.03 in 9.0 mi East 4.6 mph - 0.01 in Rain Light Rain
3:56 AM 73.9 °F 72.0 °F 93% 29.99 in 5.0 mi NE 4.6 mph - 0.05 in Rain Rain
4:08 AM 75.2 °F 73.4 °F 94% 30.04 in 2.5 mi Variable 4.6 mph - 0.08 in Rain Light Rain
4:16 AM 75.2 °F 73.4 °F 94% 30.04 in 1.5 mi East 4.6 mph - 0.12 in Rain Rain
4:18 AM 75.2 °F 73.4 °F 94% 30.04 in 2.5 mi East 5.8 mph - 0.12 in Rain Rain
4:25 AM 75.2 °F 71.6 °F 89% 30.04 in 10.0 mi ESE 5.8 mph - 0.12 in Rain Light Rain
4:38 AM 75.2 °F 73.4 °F 94% 30.04 in 10.0 mi East 4.6 mph - 0.12 in Thunderstorm Overcast
4:54 AM 73.4 °F 71.6 °F 94% 30.04 in 10.0 mi East 4.6 mph - 0.12 in   Scattered Clouds
4:56 AM 73.9 °F 72.0 °F 93% 30.00 in 10.0 mi East 4.6 mph - 0.12 in   Scattered Clouds
5:42 AM 73.4 °F 71.6 °F 94% 30.04 in 10.0 mi East 8.1 mph - 0.00 in Thunderstorm Thunderstorm
5:53 AM 73.4 °F 71.6 °F 94% 30.05 in 10.0 mi East 9.2 mph - 0.00 in Thunderstorm Thunderstorm
5:56 AM 73.9 °F 72.0 °F 93% 30.01 in 10.0 mi East 8.1 mph - 0.00 in Thunderstorm Thunderstorm
6:05 AM 73.4 °F 71.6 °F 94% 30.05 in 9.0 mi East 6.9 mph - N/A   Overcast
6:17 AM 73.4 °F 71.6 °F 94% 30.05 in 8.0 mi ESE 5.8 mph - 0.00 in Rain Light Rain
6:36 AM 73.4 °F 71.6 °F 94% 30.05 in 10.0 mi East 3.5 mph - 0.00 in   Overcast
6:56 AM 73.9 °F 71.1 °F 91% 30.01 in 10.0 mi East 3.5 mph - 0.00 in   Overcast
7:52 AM 75.2 °F 71.6 °F 89% 30.07 in 10.0 mi ESE 5.8 mph - 0.00 in Rain , Thunderstorm Light Thunderstorms and Rain
7:56 AM 75.0 °F 71.1 °F 87% 30.02 in 10.0 mi ESE 6.9 mph - 0.00 in Rain , Thunderstorm Light Thunderstorms and Rain
8:30 AM 73.4 °F 69.8 °F 88% 30.07 in 10.0 mi SE 8.1 mph - 0.00 in   Overcast
8:49 AM 73.4 °F 69.8 °F 88% 30.07 in 10.0 mi East 11.5 mph - 0.00 in Thunderstorm Thunderstorm
8:56 AM 73.9 °F 70.0 °F 87% 30.03 in 10.0 mi East 11.5 mph - 0.00 in Thunderstorm Thunderstorm
9:56 AM 73.9 °F 71.1 °F 91% 30.04 in 8.0 mi ESE 6.9 mph - 0.00 in Rain , Thunderstorm Light Thunderstorms and Rain
10:56 AM 75.0 °F 71.1 °F 87% 30.05 in 5.0 mi ESE 8.1 mph - 0.02 in Rain , Thunderstorm Light Thunderstorms and Rain
11:56 AM 72.0 °F 70.0 °F 93% 30.05 in 2.0 mi East 15.0 mph - 0.28 in Rain , Thunderstorm Light Thunderstorms and Rain
12:39 PM 71.6 °F 69.8 °F 94% 30.10 in 1.0 mi Calm Calm - 0.40 in Rain , Thunderstorm Heavy Thunderstorms and Rain
12:56 PM 72.0 °F 70.0 °F 93% 30.05 in 3.0 mi ESE 6.9 mph - 0.61 in Rain , Thunderstorm Thunderstorms and Rain
1:39 PM 71.6 °F 69.8 °F 94% 30.08 in 5.0 mi ENE 3.5 mph - 0.13 in Rain Light Rain
1:56 PM 71.1 °F 70.0 °F 96% 30.04 in 5.0 mi East 3.5 mph - 0.15 in Rain Light Rain
2:16 PM 71.6 °F 69.8 °F 94% 30.10 in 4.0 mi SE 5.8 mph - 0.03 in Rain Light Rain
2:31 PM 71.6 °F 69.8 °F 94% 30.10 in 1.5 mi SSE 4.6 mph - 0.16 in Rain Rain
2:56 PM 70.0 °F 70.0 °F 100% 30.05 in 3.0 mi Calm Calm - 0.28 in Rain Rain
3:24 PM 71.6 °F 69.8 °F 94% 30.09 in 5.0 mi ENE 3.5 mph - 0.07 in Rain Light Rain
3:48 PM 69.8 °F 69.8 °F 100% 30.08 in 3.0 mi East 4.6 mph - 0.15 in Rain Rain
3:56 PM 70.0 °F 68.0 °F 93% 30.04 in 3.0 mi SE 4.6 mph - 0.20 in Rain Rain
4:16 PM 69.8 °F 69.8 °F 100% 30.08 in 3.0 mi SSE 6.9 mph - 0.10 in Rain Rain
4:31 PM 71.6 °F 69.8 °F 94% 30.08 in 3.0 mi South 5.8 mph - 0.16 in Rain Rain
4:56 PM 71.1 °F 69.1 °F 93% 30.02 in 5.0 mi South 5.8 mph - 0.25 in Rain Rain
5:13 PM 71.6 °F 69.8 °F 94% 30.06 in 6.0 mi South 10.4 mph - N/A Rain Light Rain
5:56 PM 71.1 °F 69.1 °F 93% 30.01 in 10.0 mi SSE 8.1 mph - N/A   Mostly Cloudy
6:19 PM 71.6 °F 69.8 °F 94% 30.05 in 10.0 mi South 5.8 mph - N/A   Overcast
6:21 PM 71.6 °F 69.8 °F 94% 30.05 in 10.0 mi South 5.8 mph - N/A   Overcast
6:56 PM 72.0 °F 70.0 °F 93% 30.01 in 10.0 mi SSE 3.5 mph - N/A   Overcast
7:56 PM 71.1 °F 68.0 °F 90% 30.02 in 10.0 mi Calm Calm - N/A   Overcast
8:56 PM 71.1 °F 68.0 °F 90% 30.00 in 10.0 mi East 3.5 mph - N/A   Overcast
9:56 PM 71.1 °F 68.0 °F 90% 30.02 in 10.0 mi East 8.1 mph - N/A   Overcast
10:56 PM 71.1 °F 66.9 °F 87% 30.00 in 10.0 mi East 6.9 mph - N/A   Overcast
11:56 PM 71.1 °F 66.9 °F 87% 29.99 in 10.0 mi ESE 6.9 mph - N/A   Clear